Regional Weather Roundup
Issued by NWS Northern Indiana

Home | Current Version | Previous Version | Text Only | Print | Product List | Glossary Off
Versions: 1 2 3 4 5 6 7 8 9 10 11 12 13 14 15 16 17 18 19 20 21 22 23 24 25 26 27 28 29 30 31 32 33 34 35 36 37 38 39 40 41 42 43 44 45 46 47 48 49 50

000
ASUS43 KIWX 260300
RWRIWX

KIWX WEATHER ROUNDUP
NATIONAL WEATHER SERVICE NORTHERN INDIANA
1100 PM EDT SAT APR 25 2015

NOTE: "FAIR" INDICATES FEW OR NO CLOUDS BELOW 12,000 FEET WITH NO
SIGNIFICANT WEATHER AND/OR OBSTRUCTIONS TO VISIBILITY.

* THESE STATIONS ARE NOT UNDER NWS QUALITY CONTROL. THEY ALSO MAY NOT
  REPORT WEATHER SUCH AS PRECIPITATION OR FOG.

INZ001>027-260400-
NORTHERN INDIANA

CITY           SKY/WX    TMP DP  RH WIND       PRES   REMARKS
GARY*          CLOUDY    43  34  70 N15       29.84R
KNOX*          CLOUDY    43  30  61 NE5       29.80S
SOUTH BEND     CLOUDY    44  38  79 NW5       29.82S
GOSHEN         CLOUDY    42  34  73 N5        29.80R
MONTICELLO*    CLOUDY    43  41  93 NE12G17   29.77R
WARSAW*        CLOUDY    41  36  81 N5        29.79S
ANGOLA*        CLOUDY    41  34  75 CALM      29.79S
FORT WAYNE     CLOUDY    41  34  76 NE6       29.79R

$$
INZ028>050-260400-
CENTRAL INDIANA

CITY           SKY/WX    TMP DP  RH WIND       PRES   REMARKS
LAFAYETTE      CLOUDY    43  40  89 NE15G28   29.75R
KOKOMO*        MOCLDY    43  37  81 NE16G23   29.77R
MUNCIE*        CLOUDY    42  38  85 NE13      29.74R
INDIANAPOLIS   CLOUDY    46  38  73 NE18G29   29.68R

$$
MIZ043>046-050>051-056>058-064>065-071>073-077>080-260400-
SOUTHWEST LOWER MICHIGAN

CITY           SKY/WX    TMP DP  RH WIND       PRES   REMARKS
BATTLE CREEK   CLOUDY    46  27  47 NE10      29.82R
BENTON HARBOR  CLOUDY    40  35  83 CALM      29.82S
COLDWATER*     CLOUDY    44  32  63 N5        29.80S
HILLSDALE*     CLOUDY    44  32  62 CALM      29.79S
HOLLAND        CLOUDY    49  26  41 E8        29.85R
GRAND RAPIDS   CLOUDY    45  25  45 NE12      29.85S
KALAMAZOO      CLOUDY    47  27  45 NE8       29.83R
STURGIS*       CLOUDY    43  36  75 CALM      29.80S
THREE RIVERS*  CLOUDY    46  35  67 CALM      29.82R

$$
OHZ001>008-015>018-024>025-260400-
NORTHWEST OHIO

CITY           SKY/WX    TMP DP  RH WIND       PRES   REMARKS
DEFIANCE       CLOUDY    43  31  62 N6        29.79S
FINDLAY        CLOUDY    42  27  55 NE8       29.76R
TOLEDO EXPRESS CLOUDY    44  28  53 NE10      29.78S
TOLEDO METCALF CLOUDY    45  31  58 NE12G20   29.79S
LIMA           CLOUDY    40  31  70 N6        29.76R

$$
AND FOR LAKE MICHIGAN COASTAL AND OPEN LAKE BUOY OBSERVATIONS

STATION/POSITION TEMP    WIND        PRES    VSBY  WAVE
                 AIR SEA DIR/SP/G                  HT/PER
                 (F)     (DEG/KT/KT) (MB)    (MI)  (FT/S)
CALUMET HARBOR    40     340/ 12/ 16   N/A
MICHIGAN CITY     40     360/ 14/ 16   N/A
BURNS HARBOR      42      30/ 12/ 14 1010.8R
SAINT JOSEPH      42      10/  4/  9 1009.8F
MICHIGAN CITY     39 44   20/ 12/ 14   N/A           2/ 4

$$
&&



USA.gov is the U.S. government's official web portal to all federal, state and local government web resources and services.